Weather History for Ozark, AL

Change the Weather History Date:

Wednesday, May 15, 2013

  Actual Average Record
Temperature  
Mean Temperature 70 °F -  
Max Temperature 86 °F 82 °F 95 °F (1998)
Min Temperature 55 °F 59 °F 52 °F (2014)
Cooling Degree Days 5    
Growing Degree Days 20 (Base 50)    
Moisture  
Dew Point 55 °F    
Average Humidity 59    
Maximum Humidity 91    
Minimum Humidity 33    
Precipitation  
Precipitation 0.00 in - - ()
Sea Level Pressure  
Sea Level Pressure 30.15 in    
Wind  
Wind Speed 4 mph (SSW)    
Max Wind Speed 8 mph    
Max Gust Speed -    
Visibility 10 miles    
Events      
Averages and records for this station are not official NWS values.
T = Trace of Precipitation, MM = Missing Value Source: NWS Daily Summary

Daily Weather History Graph

Daily Weather History Graph

Search for Another Location

Airport:

Trip Planner

Search our weather history database for the weather conditions in past years. The results will help you decide how hot, cold, wet, or windy it might be!

Date:

Astronomy

May. 15, 2013 Rise Set
Actual Time 5:46 AM CDT 7:31 PM CDT
Civil Twilight 5:20 AM CDT 7:58 PM CDT
Nautical Twilight 4:48 AM CDT 8:30 PM CDT
Astronomical Twilight 4:14 AM CDT 9:04 PM CDT
Moon 10:18 AM CDT (5/15) 11:58 PM CDT (5/15)
Length of Visible Light 14h 38m
Length of Day
13h 45m
Waxing Crescent, 27% of the Moon is Illuminated
May 15
Waxing Crescent
May 17
First Quarter
May 24
Full
May 31
Last Quarter
Jun 8
New

Hourly Weather History & Observations

Time (CDT) Temp. Heat Index Dew Point Humidity Pressure Visibility Wind Dir Wind Speed Gust Speed Precip Events Conditions
12:58 AM 60.6 °F - 54.7 °F 81% 30.19 in 10.0 mi South 2.3 mph - N/A   Clear
1:58 AM 59.7 °F - 53.4 °F 80% 30.18 in 10.0 mi South 1.2 mph - N/A   Clear
2:58 AM 58.3 °F - 53.2 °F 83% 30.18 in 10.0 mi SW 2.3 mph - N/A   Clear
3:58 AM 56.7 °F - 53.8 °F 90% 30.19 in 10.0 mi SSW 2.3 mph - N/A   Clear
4:58 AM 56.1 °F - 53.1 °F 89% 30.20 in 10.0 mi SW 1.2 mph - N/A   Clear
5:58 AM 55.0 °F - 52.5 °F 91% 30.22 in 10.0 mi WSW 1.2 mph - N/A   Clear
6:58 AM 58.8 °F - 55.6 °F 89% 30.22 in 10.0 mi WSW 2.3 mph - N/A   Clear
7:58 AM 65.7 °F - 58.1 °F 77% 30.23 in 10.0 mi West 4.6 mph - N/A   Clear
8:58 AM 73.2 °F - 56.8 °F 56% 30.23 in 10.0 mi West 5.8 mph - N/A   Clear
9:58 AM 76.5 °F - 54.1 °F 46% 30.23 in 10.0 mi WSW 6.9 mph - N/A   Clear
10:58 AM 79.5 °F - 55.0 °F 43% 30.22 in 10.0 mi WSW 6.9 mph - N/A   Partly Cloudy
11:55 AM 80.6 °F 80.5 °F 55.4 °F 42% 30.21 in 10.0 mi Variable 1.2 mph - N/A   Clear
12:58 PM 82.0 °F 81.6 °F 55.9 °F 41% 30.17 in 10.0 mi Variable 1.2 mph - N/A   Scattered Clouds
1:58 PM 84.9 °F 83.6 °F 55.2 °F 36% 30.15 in 10.0 mi SSE 6.9 mph - N/A   Clear
2:58 PM 85.5 °F 84.1 °F 55.6 °F 36% 30.12 in 10.0 mi SSE 5.8 mph - N/A   Clear
3:58 PM 85.3 °F 83.5 °F 53.2 °F 33% 30.10 in 10.0 mi Variable 4.6 mph - N/A   Clear
4:58 PM 85.6 °F 84.1 °F 54.7 °F 35% 30.08 in 10.0 mi SSW 6.9 mph - N/A   Clear
5:58 PM 84.4 °F 83.1 °F 55.0 °F 36% 30.07 in 10.0 mi SSW 5.8 mph - N/A   Clear
6:58 PM 80.8 °F 80.9 °F 57.0 °F 44% 30.06 in 10.0 mi SSW 3.5 mph - N/A   Clear
7:58 PM 75.0 °F - 56.8 °F 53% 30.08 in 10.0 mi SSW 8.1 mph - N/A   Clear
8:58 PM 72.7 °F - 54.0 °F 52% 30.09 in 10.0 mi SSW 8.1 mph - N/A   Partly Cloudy
9:58 PM 70.7 °F - 52.3 °F 52% 30.10 in 10.0 mi South 8.1 mph - N/A   Mostly Cloudy
10:58 PM 68.2 °F - 53.2 °F 59% 30.09 in 10.0 mi South 4.6 mph - N/A   Overcast
11:58 PM 67.3 °F - 54.0 °F 62% 30.08 in 10.0 mi South 3.5 mph - N/A   Mostly Cloudy